Probability
0 0 0 0 0 0 0 0 0 0 0 0 0 0 0 0 0 0 0 0 0 0 0 0 0 0 0 0 0 0 0 0 0 0 0 0 0 0
0 0 0 0 0 0 0 0 0 0 0 0 0 0 0 0 0 0 0 0 0 0 0 0 0 0 0 0 0 0 0 0 0 0 0 0 0 0
0 0 0 0 0 0 0 0 0 0 0 0 0 0 0 0 0 0 0 0 0 0 0 0 0 0 0 0 0 0 0 0 0 0 0 0 0 0
0 0 0 0 0 0 0 0 0 0 0 0 0 0 0 0 0 0 0 0 0 0 0 0 0 0 0 0 0 0 0 0 0 0 0 0 0 0
0 0 0 0 0 0 0 0 0 0 0 0 0 0 0 0 0 0 0 0 0 0 0 0 0 0 0 0 0 0 0 0 0 0 0 0 0 0
0 0 0 0 0 0 0 0 0 0 0 0 0 0 0 0 0 0 0 0 0 0 0 0 0 0 0 0 0 0 0 0 0 0 0 0 0 0
0 0 0 0 0 0 0 0 0 0 0 0 0 0 0 0 0 0 0 0 0 0 0 0 0 0 0 0 0 0 0 0 0 0 0 0 0 0
0 0 0 0 0 0 0 0 0 0 0 0 0 0 0 0 0 0 0 0 0 0 0 0 0 0 0 0 0 0 0 0 0 0 0 0 0 0
0 0 0 0 0 0 0 0 0 0 0 0 0 0 0 0 0 0 0 0 0 0 0 0 0 0 0 0 0 0 0 0 0 0 0 0 0 0
0 0 0 0 0 0 0 0 0 0 0 0 0 0 0 0 0 0 0 0 0 0 0 0 0 0 0 0 0 0 0 0 0 0 0 0 0 0
0 0 0 0 0 0 0 0 0 0 0 0 0 0 0 0 0 0 0 0 0 0 0 0 0 0 0 0 0 0 0 0 0 0 0 0 0 0
0 0 0 0 0 0 0 0 0 0 0 0 0 0 0 0 0 0 0 0 0 0 0 0 0 0 0 0 0 0 0 0 0 0 0 0 0 0
0 0 0 0 0 0 0 0 0 0 0 0 0 0 0 0 0 0 0 0 0 0 0 0 0 0 0 0 0 0 0 0 0 0 0 0 0 0
0 0 0 0 0 0 0 0 0 0 0 0 0 0 0 0 0 0 0 0 0 0 0 0 0 0 0 0 0 0 0 0 0 0 0 0 0 0
0 0 0 0 0 0 0 0 0 0 0 0 0 0 0 0 0 0 0 0 0 0 0 0 0 0 0 0 0 0 0 0 0 0 0 0 0 0
0 0 0 0 0 0 0 0 0 0 0 0 0 0 0 0 0 0 0 0 0 0 0 0 0 0 0 0 0 0 0 0 0 0 0 0 0 0
0 0 0 0 0 0 0 0 0 0 0 0 0 0 0 0 0 0 0 0 0 0 0 0 0 0 0 0 0 0 0 0 0 0 0 0 0 0
0 0 0 0 0 0 0 0 0 0 0 0 0 0 0 0 0 0 0 0 0 0 0 0 0 0 0 0 0 0 0 0 0 0 0 0 0 0
0 0 0 0 0 0 0 0 0 0 0 0 0 0 0 0 0 0 0 0 0 0 0 0 0 0 0 0 0 0 0 0 0 0 0 0 0 0
0 0 0 0 0 0 0 0 0 0 0 0 0 0 0 0 0 0 0 0 0 0 0 0 0 0 0 0 0 0 0 0 0 0 0 0 0 0
0 0 0 0 0 0 0 0 0 0 0 0 0 0 0 0 0 0 0 0 0 0 0 0 0 0 0 0 0 0 0 0 0 0 0 0 0 0
0 0 0 0 0 0 0 0 0 0 0 0 0 0 0 0 0 0 0 0 0 0 0 0 0 0 0 0 0 0 0 0 0 0 0 0 0 0
0 0 0 0 0 0 0 0 0 0 0 0 0 0 0 0 0 0 0 0 0 0 0 0 0 0 0 0 0 0 0 0 0 0 0 0 0 0
Height
5650 5644 5638 5632 5625 5618 5611 5604 5598 5595 5595 5590 5581 5574 5566 5560 5554 5548 5544 5539 5535 5532 5529 5527 5525 5524 5523 5523 5523 5524 5525 5527 5530 5534 5538 5542 5546 5552
5634 5628 5621 5614 5607 5599 5592 5584 5576 5570 5568 5567 5557 5548 5540 5534 5528 5522 5517 5512 5508 5504 5501 5499 5498 5497 5496 5496 5496 5496 5498 5500 5502 5506 5510 5514 5519 5525
5617 5610 5603 5595 5587 5579 5571 5563 5555 5546 5542 5542 5533 5524 5515 5508 5502 5495 5490 5486 5482 5479 5476 5474 5473 5472 5472 5471 5471 5472 5473 5475 5477 5481 5484 5489 5494 5501
5599 5592 5584 5575 5567 5559 5550 5542 5533 5524 5516 5514 5509 5499 5491 5482 5476 5471 5467 5463 5460 5457 5455 5453 5452 5451 5450 5450 5450 5451 5452 5454 5456 5459 5463 5468 5472 5475
5581 5572 5564 5555 5546 5537 5528 5519 5510 5501 5491 5485 5482 5475 5467 5460 5454 5450 5445 5443 5440 5438 5436 5434 5433 5432 5432 5432 5432 5432 5433 5435 5438 5440 5443 5446 5450 5455
5561 5552 5543 5533 5524 5515 5505 5496 5486 5477 5469 5461 5456 5452 5446 5439 5434 5430 5428 5425 5423 5420 5419 5418 5417 5416 5416 5415 5416 5416 5417 5418 5420 5423 5425 5429 5432 5436
5542 5532 5522 5511 5501 5491 5481 5472 5463 5455 5447 5440 5435 5431 5427 5421 5416 5412 5411 5409 5408 5405 5403 5402 5401 5402 5401 5400 5401 5401 5402 5404 5405 5407 5409 5412 5415 5419
5522 5511 5500 5489 5478 5468 5458 5449 5440 5432 5426 5420 5416 5413 5409 5404 5400 5397 5395 5394 5394 5392 5389 5389 5387 5387 5386 5386 5386 5387 5388 5389 5391 5392 5394 5396 5399 5403
5500 5489 5478 5467 5456 5446 5438 5429 5421 5413 5407 5402 5399 5396 5392 5389 5385 5383 5380 5379 5378 5377 5376 5376 5374 5374 5373 5372 5373 5373 5374 5376 5377 5378 5380 5382 5385 5388
5478 5466 5456 5446 5435 5426 5419 5412 5406 5399 5392 5386 5383 5380 5377 5374 5371 5369 5366 5365 5365 5363 5362 5362 5362 5361 5360 5360 5360 5360 5361 5362 5364 5365 5367 5369 5371 5374
5457 5445 5434 5425 5416 5407 5400 5396 5391 5385 5379 5373 5370 5366 5364 5361 5357 5355 5353 5352 5352 5351 5349 5348 5349 5348 5349 5349 5348 5348 5349 5350 5351 5353 5355 5357 5359 5362
5438 5426 5415 5406 5398 5390 5384 5379 5375 5371 5366 5362 5358 5354 5351 5348 5345 5343 5341 5339 5338 5338 5336 5335 5336 5336 5337 5337 5337 5336 5337 5338 5340 5342 5344 5346 5348 5351
5418 5408 5398 5389 5382 5376 5369 5364 5360 5356 5353 5349 5346 5343 5340 5337 5334 5331 5329 5327 5326 5326 5325 5323 5324 5324 5325 5326 5326 5325 5326 5327 5328 5331 5333 5335 5338 5341
5398 5390 5382 5375 5368 5362 5356 5351 5347 5343 5340 5337 5334 5332 5329 5326 5323 5321 5319 5317 5315 5314 5313 5312 5312 5312 5313 5314 5315 5315 5315 5316 5317 5320 5322 5325 5328 5331
5379 5373 5366 5360 5354 5349 5344 5339 5335 5332 5328 5326 5323 5321 5318 5315 5313 5311 5309 5307 5306 5304 5303 5302 5302 5302 5302 5303 5304 5304 5304 5305 5307 5309 5311 5315 5318 5322
5364 5358 5352 5346 5341 5336 5332 5328 5324 5320 5318 5315 5313 5310 5308 5306 5303 5302 5300 5298 5297 5295 5294 5293 5292 5292 5292 5292 5293 5293 5294 5295 5296 5298 5301 5305 5308 5312
5350 5345 5339 5334 5329 5325 5321 5317 5313 5310 5307 5305 5303 5300 5298 5296 5294 5293 5291 5290 5288 5287 5285 5284 5283 5282 5282 5282 5282 5282 5283 5285 5286 5288 5291 5295 5299 5303
5335 5331 5326 5322 5318 5314 5310 5307 5303 5300 5298 5295 5293 5291 5289 5287 5286 5284 5282 5281 5280 5278 5277 5276 5274 5274 5273 5273 5273 5273 5274 5275 5277 5279 5282 5286 5289 5294
5322 5318 5314 5310 5307 5303 5300 5297 5294 5291 5288 5286 5283 5282 5280 5278 5277 5275 5274 5272 5271 5270 5268 5267 5266 5265 5264 5264 5264 5265 5265 5266 5268 5271 5274 5277 5281 5285
5310 5306 5303 5299 5296 5293 5290 5287 5284 5281 5279 5276 5274 5272 5271 5269 5268 5266 5265 5263 5262 5261 5259 5258 5257 5256 5256 5256 5256 5256 5257 5258 5260 5262 5265 5268 5272 5276
5299 5295 5292 5289 5286 5283 5280 5278 5275 5272 5269 5267 5265 5263 5262 5260 5259 5257 5256 5255 5253 5252 5251 5250 5248 5248 5247 5248 5248 5248 5249 5251 5252 5254 5257 5261 5264 5268
5288 5285 5282 5279 5276 5273 5271 5268 5265 5263 5260 5258 5256 5254 5253 5251 5250 5248 5247 5246 5245 5244 5242 5241 5240 5240 5239 5239 5240 5240 5241 5243 5245 5247 5249 5252 5256 5260
5278 5275 5272 5269 5266 5264 5261 5259 5256 5253 5251 5249 5247 5245 5244 5242 5240 5239 5238 5236 5235 5234 5233 5232 5232 5231 5231 5231 5231 5231 5232 5234 5236 5238 5241 5244 5247 5251
Wind_Speed
62 64 65 67 69 71 73 75 77 77 76 76 78 79 81 82 83 84 84 85 85 86 85 85 84 84 84 85 86 87 88 88 89 89 88 88 88 88
65 66 68 69 71 73 75 76 79 81 81 80 81 82 83 84 84 84 84 83 82 82 81 80 79 79 78 78 79 80 81 82 83 83 83 83 84 84
66 68 70 72 73 75 77 78 80 82 84 82 83 84 84 84 83 82 80 77 75 74 72 71 71 70 70 70 70 71 71 73 74 74 75 76 76 78
68 70 71 74 75 77 79 80 82 83 85 84 82 82 81 80 78 75 72 69 67 65 64 62 62 61 61 61 60 61 62 63 64 65 66 68 69 70
70 72 74 76 77 79 81 82 83 84 84 84 80 78 75 72 69 66 64 61 60 58 56 55 55 54 54 53 53 54 54 55 56 57 58 59 61 63
72 74 76 78 80 81 82 82 82 82 80 78 75 71 67 64 62 59 57 55 53 52 51 50 49 49 48 48 49 48 49 50 51 52 52 53 55 57
75 77 79 80 82 82 81 80 79 77 74 71 67 63 59 57 55 54 52 50 48 47 47 46 46 46 46 46 45 45 45 46 46 47 48 49 51 52
77 79 80 81 81 79 78 76 74 71 67 64 60 56 53 52 50 49 47 46 44 44 44 43 44 43 44 44 44 44 44 43 44 44 45 46 47 49
80 81 80 79 77 75 72 69 66 63 60 58 54 51 49 47 46 45 45 44 42 42 42 41 42 41 42 42 42 42 42 42 41 42 42 43 44 45
81 80 78 75 72 69 66 62 58 56 54 53 50 47 45 43 43 43 42 41 40 40 40 39 39 39 40 40 40 40 40 40 39 39 39 40 41 42
79 76 74 70 66 64 61 57 53 51 50 48 46 44 42 41 42 41 41 40 39 38 38 38 37 37 36 36 37 37 37 37 37 36 36 36 37 39
75 71 68 65 61 58 56 52 49 47 45 43 42 41 40 40 40 40 39 38 37 35 35 36 35 35 34 34 36 36 36 36 35 34 34 34 34 35
70 66 62 59 56 54 52 49 46 44 41 40 38 37 38 38 38 37 36 35 34 32 32 34 33 33 33 33 34 35 35 34 34 33 33 32 33 33
66 61 57 54 51 49 47 45 43 41 39 37 36 35 35 35 34 34 33 33 32 30 30 31 30 31 31 31 32 33 34 34 33 33 33 32 32 32
61 57 53 50 47 45 43 42 41 39 36 35 34 33 32 31 31 30 30 30 29 28 27 27 28 29 30 30 30 31 32 33 33 33 32 32 31 31
56 52 49 46 44 42 40 39 38 36 34 33 32 31 30 29 28 27 27 27 27 27 27 26 27 27 28 28 29 29 31 31 32 32 32 32 31 31
51 47 44 42 40 39 38 36 35 34 33 32 31 30 29 28 27 27 26 26 25 25 26 26 26 27 26 27 27 28 29 30 31 31 31 31 31 31
47 44 41 39 37 35 34 34 33 32 32 31 30 28 27 27 27 27 26 25 25 25 25 26 26 26 26 25 25 25 26 27 28 29 29 29 30 30
43 41 38 36 34 33 32 31 31 31 30 29 28 28 27 27 27 27 26 26 25 25 25 25 25 25 25 25 24 23 23 24 26 26 27 27 28 29
41 39 36 33 32 31 30 30 29 29 29 28 27 27 27 26 27 27 26 26 25 25 25 25 25 24 24 23 23 23 23 23 24 25 26 26 27 28
38 36 34 32 31 30 29 29 29 28 28 27 27 26 26 26 26 26 26 25 25 25 25 25 24 23 23 23 23 23 23 23 23 24 26 27 27 28
36 33 31 30 30 29 29 29 28 28 27 27 26 26 26 26 26 26 26 26 25 25 24 24 24 24 23 23 24 24 24 24 24 24 25 26 27 28
33 31 30 30 29 29 29 28 28 27 27 26 25 26 26 26 26 26 26 26 26 26 25 25 25 25 24 25 25 25 25 25 25 25 25 26 27 28
Wind_Direction
293 293 293 293 293 293 292 292 291 289 288 288 288 287 287 286 285 284 283 282 280 279 277 276 274 272 270 269 267 266 264 263 262 260 259 257 256 255
294 294 294 294 294 294 294 293 293 292 290 290 290 289 289 288 287 286 284 283 281 280 278 276 274 272 271 270 268 266 265 263 262 260 258 257 255 254
296 296 296 296 296 295 295 295 294 294 293 292 292 291 290 289 288 286 285 283 281 279 277 276 274 273 272 270 268 267 265 263 261 260 258 256 255 253
298 298 298 298 298 297 297 296 296 295 295 294 293 292 290 289 288 286 284 282 280 279 278 276 274 273 271 270 268 267 265 263 261 259 258 256 255 252
300 300 300 300 299 299 298 298 297 296 295 295 293 292 290 289 287 285 283 281 280 278 277 275 273 272 271 270 268 267 265 263 261 260 258 256 254 252
302 302 302 301 301 300 299 298 297 296 295 294 293 292 290 288 286 284 282 281 280 278 276 274 273 272 271 270 268 266 265 264 262 260 258 256 254 252
304 303 303 303 302 301 300 299 297 296 295 294 292 291 289 287 284 283 281 280 279 278 276 275 273 272 271 269 267 266 265 264 262 261 259 257 254 251
305 305 304 304 303 301 300 299 298 296 295 293 292 290 288 285 283 281 281 280 278 276 275 274 274 272 270 269 267 266 266 264 263 261 259 257 254 251
306 306 305 304 302 301 299 298 297 296 295 293 292 290 287 285 283 282 281 280 278 276 274 272 272 271 270 269 268 267 266 265 263 262 259 257 254 250
308 307 305 303 302 300 299 298 296 295 294 293 292 290 288 286 284 283 282 280 279 277 275 272 269 269 269 268 267 267 266 265 263 262 259 256 253 249
308 306 304 303 301 299 298 297 296 294 292 291 290 288 287 285 284 284 283 282 281 278 275 272 268 267 266 266 266 267 266 264 262 260 258 256 253 249
307 305 303 302 300 299 298 297 295 294 292 290 289 288 287 286 285 285 285 284 283 279 274 272 269 266 264 264 265 265 265 263 260 259 257 254 252 249
307 305 302 300 299 298 297 296 295 294 292 290 288 287 286 286 286 286 285 285 284 281 276 273 270 267 265 263 263 264 264 263 260 257 255 254 251 249
306 304 301 299 298 297 296 295 295 294 292 291 289 288 287 286 284 284 284 285 285 283 280 276 271 268 267 265 262 262 262 261 259 256 254 252 249 246
305 303 301 299 298 297 296 295 295 293 292 290 290 289 287 285 285 284 284 284 285 284 282 279 276 273 270 267 264 261 260 260 258 255 252 249 246 243
303 302 300 298 297 296 296 295 294 293 291 290 290 289 287 286 285 285 285 284 284 283 282 280 279 277 274 270 267 263 260 258 256 253 250 247 245 241
302 300 299 297 295 295 295 295 293 292 291 290 289 288 287 285 284 284 284 284 283 282 282 281 281 280 277 273 269 265 260 256 253 252 249 245 243 240
302 301 299 297 295 294 294 294 293 292 291 289 288 287 285 284 284 284 283 284 283 283 282 281 281 280 278 275 271 266 260 255 252 250 247 244 240 238
301 300 299 297 295 294 294 294 293 292 290 289 288 286 285 284 284 284 284 284 283 283 283 282 281 279 277 275 271 266 260 254 250 247 244 241 238 236
300 299 298 296 295 294 295 295 294 293 291 290 288 287 285 284 284 284 284 283 283 284 283 282 281 279 275 272 268 265 261 256 251 246 242 239 237 235
299 297 296 295 295 294 294 295 295 294 292 289 288 287 286 286 284 284 285 284 283 283 284 282 279 277 274 271 266 263 260 256 252 247 243 240 237 235
298 296 294 294 294 293 294 295 295 294 292 289 287 287 287 286 285 284 285 285 284 283 283 282 279 276 274 271 266 262 259 255 252 248 244 240 237 234
297 294 293 294 294 293 294 295 295 294 292 289 287 288 288 286 285 284 284 284 283 282 281 281 279 276 273 271 267 263 259 256 252 248 244 241 237 235